DW6344 Weather Reports


time (UTC)temp
C
wind
direction
speed
KPH
gust
KPH
rain 1hr
cm
rain 24hr
cm
rain mn
cm
humidity
%
barometer
mb
20260507151406 13 160 0.0 6.4 0.00 0.58 0.56 81 1009.1
20260507150840 13 82 1.6 6.4 0.00 0.58 0.56 81 1009.1
20260507150359 13 45 1.6 4.8 0.00 0.58 0.56 82 1008.9
20260507145831 13 138 1.6 4.8 0.00 0.58 0.56 83 1009.1
20260507145340 13 168 1.6 6.4 0.00 0.58 0.56 83 1009.1
20260507144831 13 360 1.6 4.8 0.03 0.58 0.56 83 1009.1
20260507144340 13 214 0.0 4.8 0.03 0.58 0.56 84 1009.1
20260507143852 13 83 0.0 6.4 0.03 0.58 0.56 85 1009.5
20260507143349 13 57 1.6 6.4 0.03 0.58 0.56 85 1009.3
20260507142859 13 169 1.6 4.8 0.03 0.58 0.56 85 1009.3
20260507142358 13 40 1.6 4.8 0.03 0.58 0.56 85 1009.4
20260507141853 13 328 1.6 8.0 0.03 0.58 0.56 86 1009.6
20260507141412 14 5 3.2 8.0 0.03 0.58 0.56 87 1009.3
20260507140846 14 99 0.0 1.6 0.03 0.58 0.56 88 1009.2
20260507140336 14 99 0.0 4.8 0.03 0.58 0.56 88 1009.4
20260507135902 14 99 0.0 4.8 0.03 0.58 0.56 88 1009.3
20260507135340 14 165 0.0 3.2 0.03 0.58 0.56 88 1009.3
20260507134844 14 175 1.6 3.2 0.00 0.56 0.53 88 1009.1
20260507134346 14 175 0.0 3.2 0.00 0.56 0.53 88 1009.0
20260507133844 14 175 0.0 1.6 0.00 0.56 0.53 88 1009.1
20260507133359 14 175 0.0 1.6 0.03 0.56 0.53 88 1009.1
20260507132859 14 142 0.0 1.6 0.03 0.56 0.53 88 1009.0
20260507132348 14 142 0.0 3.2 0.03 0.56 0.53 88 1009.0
20260507131907 14 141 0.0 3.2 0.03 0.56 0.53 88 1009.2
20260507131341 14 142 1.6 9.7 0.05 0.56 0.53 88 1009.2
20260507130834 14 180 0.0 9.7 0.05 0.56 0.53 88 1009.0
20260507130334 14 205 0.0 4.8 0.05 0.56 0.53 88 1009.1
20260507125841 14 205 1.6 4.8 0.05 0.56 0.53 87 1009.1
20260507125332 14 5 1.6 4.8 0.05 0.56 0.53 87 1008.8
20260507124837 14 190 0.0 4.8 0.05 0.56 0.53 87 1008.8
20260507124344 14 184 1.6 4.8 0.08 0.56 0.53 87 1008.7
20260507123858 14 233 0.0 4.8 0.10 0.56 0.53 87 1008.9
20260507123403 14 236 0.0 6.4 0.08 0.53 0.51 86 1009.2
20260507122828 14 74 0.0 6.4 0.10 0.53 0.51 86 1009.1
20260507122348 14 116 0.0 4.8 0.10 0.53 0.51 86 1009.1
20260507121858 14 171 1.6 8.0 0.13 0.53 0.51 86 1008.8
20260507121333 15 192 1.6 4.8 0.10 0.51 0.48 86 1008.8
20260507120910 15 204 1.6 4.8 0.15 0.51 0.48 87 1008.6
20260507120339 15 325 1.6 4.8 0.15 0.51 0.48 88 1008.8
20260507115906 15 80 0.0 6.4 0.15 0.51 0.48 88 1008.9
20260507115400 15 287 0.0 6.4 0.15 0.51 0.48 87 1008.6
20260507114852 15 91 1.6 3.2 0.18 0.51 0.48 88 1008.5
20260507114352 15 51 0.0 3.2 0.15 0.48 0.46 87 1008.5
20260507113832 15 199 0.0 4.8 0.13 0.46 0.43 87 1008.7
20260507113335 15 197 1.6 4.8 0.15 0.46 0.43 87 1008.6
20260507112842 15 251 0.0 4.8 0.13 0.43 0.41 87 1008.8
20260507112350 15 296 0.0 4.8 0.15 0.43 0.41 87 1008.6
20260507111857 15 119 0.0 1.6 0.13 0.41 0.38 87 1008.4
20260507111332 15 118 0.0 3.2 0.13 0.41 0.38 87 1008.4
20260507110836 15 120 0.0 3.2 0.10 0.36 0.33 87 1008.5
20260507110338 16 121 1.6 3.2 0.10 0.36 0.33 87 1008.3
20260507105845 16 132 1.6 3.2 0.10 0.36 0.33 87 1008.2
20260507105345 16 176 0.0 3.2 0.08 0.33 0.30 87 1008.2
20260507104848 16 122 1.6 3.2 0.10 0.33 0.30 87 1008.1
20260507104329 16 210 1.6 3.2 0.13 0.33 0.30 87 1008.0
20260507103837 16 196 1.6 4.8 0.13 0.33 0.30 87 1007.9
20260507103330 16 36 0.0 4.8 0.10 0.30 0.28 87 1007.8
20260507102829 16 343 0.0 3.2 0.10 0.30 0.28 87 1007.8
20260507102405 16 284 0.0 1.6 0.08 0.28 0.25 87 1007.8
20260507101843 16 269 1.6 4.8 0.10 0.28 0.25 86 1007.8
20260507101325 16 266 0.0 6.4 0.10 0.28 0.25 86 1008.0
20260507100834 16 5 0.0 4.8 0.10 0.25 0.23 86 1007.9
20260507100339 17 232 1.6 4.8 0.10 0.25 0.23 85 1008.0
20260507095836 17 82 1.6 4.8 0.13 0.25 0.23 85 1007.7
20260507095332 17 278 1.6 6.4 0.15 0.25 0.23 85 1007.9
20260507094838 18 41 1.6 8.0 0.13 0.23 0.20 85 1007.7
20260507094331 18 57 1.6 8.0 0.13 0.20 0.18 86 1007.6
20260507093834 19 330 1.6 6.4 0.13 0.20 0.18 87 1007.7
20260507093344 19 71 0.0 0.0 0.13 0.20 0.18 89 1007.4
20260507092856 19 71 0.0 0.0 0.13 0.20 0.18 88 1007.3
20260507092334 19 71 0.0 0.0 0.13 0.20 0.18 88 1007.2
20260507091837 19 71 0.0 0.0 0.10 0.18 0.15 88 1007.1
20260507091346 19 71 0.0 0.0 0.10 0.18 0.15 88 1007.0
20260507090835 19 71 0.0 0.0 0.08 0.15 0.13 88 1007.0
20260507090348 19 71 0.0 0.0 0.08 0.15 0.13 88 1006.9
20260507085847 19 71 0.0 0.0 0.05 0.13 0.10 88 1006.8
20260507085338 19 71 0.0 0.0 0.03 0.10 0.08 88 1006.7
20260507084842 19 71 0.0 0.0 0.00 0.08 0.05 88 1006.7
20260507084345 19 71 0.0 0.0 0.00 0.08 0.05 88 1006.7
20260507083844 19 71 0.0 0.0 0.00 0.08 0.05 88 1006.8
20260507083344 19 71 0.0 0.0 0.00 0.08 0.05 88 1006.8
20260507082833 19 71 0.0 0.0 0.00 0.08 0.05 88 1006.9
20260507082351 19 71 0.0 0.0 0.00 0.08 0.05 88 1006.8
20260507081837 19 71 0.0 1.6 0.00 0.08 0.05 88 1006.8
20260507081349 20 71 0.0 1.6 0.00 0.08 0.05 88 1006.8
20260507080850 20 71 0.0 1.6 0.00 0.08 0.05 88 1006.6
20260507080357 20 71 0.0 1.6 0.00 0.08 0.05 87 1006.5
20260507075858 20 71 0.0 1.6 0.00 0.08 0.05 87 1006.5
20260507075338 20 71 0.0 3.2 0.00 0.08 0.05 87 1006.5
20260507074921 20 71 0.0 3.2 0.00 0.08 0.05 87 1006.5
20260507074329 20 71 0.0 3.2 0.00 0.08 0.05 87 1006.7
20260507073858 20 71 0.0 3.2 0.00 0.08 0.05 87 1006.6
20260507073356 19 71 0.0 3.2 0.00 0.08 0.05 87 1006.8
20260507072834 20 71 0.0 3.2 0.00 0.08 0.05 87 1006.9
20260507072349 20 71 1.6 4.8 0.00 0.08 0.05 87 1006.8
20260507071843 20 337 1.6 4.8 0.00 0.08 0.05 87 1006.8
20260507071404 20 62 1.6 4.8 0.03 0.08 0.05 87 1006.9
20260507070834 20 298 1.6 4.8 0.03 0.08 0.05 87 1006.9
20260507070344 20 183 0.0 4.8 0.03 0.08 0.05 87 1006.7
20260507065841 20 161 1.6 4.8 0.03 0.08 0.05 87 1006.7
20260507065330 20 49 0.0 4.8 0.05 0.08 0.05 87 1006.6
20260507064840 20 49 1.6 4.8 0.05 0.08 0.05 87 1006.7
20260507064344 20 25 0.0 3.2 0.05 0.08 0.05 86 1006.5
20260507063915 20 25 1.6 6.4 0.05 0.08 0.05 86 1006.5
20260507063358 20 27 1.6 6.4 0.05 0.08 0.05 86 1006.3
20260507062846 20 87 0.0 3.2 0.05 0.08 0.05 85 1006.2
20260507062405 20 87 0.0 3.2 0.05 0.08 0.05 85 1006.2
20260507061838 20 74 0.0 3.2 0.05 0.08 0.05 85 1006.2
20260507061335 20 74 0.0 3.2 0.03 0.05 0.03 84 1006.5
20260507060847 20 84 0.0 1.6 0.03 0.05 0.03 83 1006.7
20260507060344 20 84 0.0 3.2 0.03 0.05 0.03 83 1007.0
20260507055903 20 71 0.0 1.6 0.03 0.05 0.03 82 1007.2
20260507055331 21 71 0.0 3.2 0.00 0.03 0.00 81 1007.4
20260507054833 21 88 1.6 3.2 0.00 0.03 0.00 80 1007.2
20260507054333 21 69 0.0 3.2 0.00 0.03 0.00 79 1007.7
20260507053841 21 69 0.0 3.2 0.00 0.03 0.00 79 1007.7
20260507053328 21 69 1.6 4.8 0.00 0.03 0.00 78 1007.8
20260507052841 21 28 0.0 4.8 0.00 0.03 0.00 78 1007.8
20260507052354 21 338 1.6 4.8 0.00 0.03 0.00 77 1007.9
20260507051854 21 84 0.0 3.2 0.00 0.03 0.00 77 1008.0
20260507051349 21 82 0.0 3.2 0.00 0.03 0.00 77 1007.9
20260507050857 21 82 0.0 3.2 0.00 0.03 0.00 77 1007.9
20260507050334 21 128 0.0 3.2 0.00 0.03 0.00 77 1007.8
20260507045846 21 126 0.0 3.2 0.00 0.03 0.00 76 1008.0
20260507045400 21 194 0.0 3.2 0.00 0.03 0.00 77 1008.0
20260507044830 21 118 0.0 1.6 0.00 0.03 0.00 76 1008.1
20260507044335 21 119 0.0 1.6 0.00 0.03 0.00 76 1008.1
20260507043849 21 119 0.0 0.0 0.00 0.03 0.00 76 1008.0
20260507043342 21 119 0.0 0.0 0.00 0.03 0.00 76 1007.9
20260507042841 21 119 0.0 0.0 0.00 0.03 0.00 75 1007.8
20260507042334 21 119 0.0 0.0 0.00 0.03 0.00 75 1007.6
20260507041841 21 119 0.0 0.0 0.00 0.03 0.00 75 1007.5
20260507041410 21 119 0.0 3.2 0.00 0.03 0.00 75 1007.6
20260507040854 21 119 0.0 3.2 0.00 0.03 0.00 75 1007.7
20260507040353 21 70 0.0 1.6 0.00 0.03 0.00 75 1007.7
20260507035836 21 69 0.0 1.6 0.00 0.03 0.03 75 1007.8
20260507035336 21 70 0.0 1.6 0.00 0.03 0.03 75 1007.8
20260507034837 21 70 0.0 1.6 0.00 0.03 0.03 75 1007.8
20260507034359 21 70 0.0 1.6 0.00 0.03 0.03 75 1007.8
20260507033843 21 70 0.0 3.2 0.00 0.03 0.03 75 1007.9
20260507033331 21 70 0.0 3.2 0.00 0.03 0.03 75 1007.7
20260507032830 21 24 0.0 1.6 0.00 0.03 0.03 75 1007.7
20260507032328 21 24 0.0 1.6 0.00 0.03 0.03 75 1007.6
20260507031838 21 21 0.0 0.0 0.00 0.03 0.03 75 1007.5
20260507031351 21 22 0.0 3.2 0.00 0.03 0.03 75 1007.6
20260507030859 21 21 0.0 4.8 0.00 0.03 0.03 75 1007.6
20260507030342 21 21 0.0 4.8 0.00 0.03 0.03 76 1007.6
20260507025904 20 44 0.0 1.6 0.00 0.03 0.03 76 1007.6
20260507025344 20 42 0.0 1.6 0.00 0.03 0.03 77 1007.5
20260507024857 20 42 0.0 0.0 0.00 0.03 0.03 77 1007.5
20260507024337 20 42 0.0 3.2 0.00 0.03 0.03 77 1007.6
20260507023837 20 42 0.0 3.2 0.00 0.03 0.03 77 1007.8
20260507023340 20 79 0.0 1.6 0.00 0.03 0.03 78 1007.9
20260507022900 20 79 0.0 3.2 0.00 0.03 0.03 78 1007.9
20260507022340 20 79 0.0 3.2 0.00 0.03 0.03 78 1008.0
20260507021855 20 79 0.0 0.0 0.00 0.03 0.03 77 1007.9
20260507021400 20 79 0.0 0.0 0.00 0.03 0.03 77 1008.0
20260507020859 20 79 0.0 0.0 0.00 0.03 0.03 77 1007.9
20260507020341 20 79 0.0 0.0 0.00 0.03 0.03 76 1008.0
20260507015843 20 79 0.0 0.0 0.00 0.03 0.03 76 1008.0
20260507015405 20 79 0.0 0.0 0.00 0.03 0.03 75 1008.0
20260507014858 20 79 0.0 0.0 0.00 0.03 0.03 75 1007.9
20260507014334 20 79 0.0 0.0 0.00 0.03 0.03 75 1008.0
20260507013828 20 79 0.0 0.0 0.00 0.03 0.03 74 1008.0
20260507013350 21 79 0.0 0.0 0.00 0.03 0.03 74 1008.1
20260507012853 21 79 0.0 0.0 0.00 0.03 0.03 73 1008.1
20260507012348 21 79 0.0 0.0 0.00 0.03 0.03 73 1007.9
20260507011845 21 79 0.0 0.0 0.00 0.03 0.03 72 1008.0
20260507011403 21 79 0.0 0.0 0.00 0.03 0.03 72 1007.9
20260507010825 21 79 0.0 3.2 0.00 0.03 0.03 71 1007.7
20260507010333 21 79 0.0 3.2 0.00 0.03 0.03 71 1007.7
20260507005908 21 79 0.0 3.2 0.00 0.03 0.03 71 1007.9
20260507005349 21 79 0.0 3.2 0.00 0.03 0.03 70 1007.9
20260507004836 21 79 0.0 1.6 0.00 0.03 0.03 70 1008.0
20260507004329 21 79 0.0 1.6 0.00 0.03 0.03 69 1007.9
20260507003829 22 79 0.0 1.6 0.00 0.03 0.03 69 1007.9
20260507003331 22 79 0.0 1.6 0.00 0.03 0.03 69 1007.9
20260507002830 22 79 0.0 1.6 0.00 0.03 0.03 68 1008.0
20260507002329 22 79 0.0 3.2 0.00 0.03 0.03 68 1008.1
20260507001835 22 79 0.0 4.8 0.00 0.03 0.03 67 1008.0
20260507001337 22 79 0.0 4.8 0.00 0.03 0.03 66 1007.8
20260507000838 22 281 0.0 3.2 0.00 0.03 0.03 66 1007.8
20260507000401 22 87 0.0 3.2 0.00 0.03 0.03 66 1007.7
20260506235840 22 88 0.0 3.2 0.00 0.03 0.03 66 1007.6
20260506235334 22 88 1.6 4.8 0.00 0.03 0.03 65 1007.6
20260506234845 23 88 1.6 4.8 0.00 0.03 0.03 64 1007.6
20260506234347 23 67 1.6 3.2 0.00 0.03 0.03 64 1007.7
20260506233855 23 60 0.0 3.2 0.00 0.03 0.03 64 1007.7
20260506233355 23 60 0.0 3.2 0.00 0.03 0.03 63 1007.6
20260506232857 23 76 0.0 3.2 0.00 0.03 0.03 63 1007.7
20260506232337 23 76 0.0 4.8 0.00 0.03 0.03 63 1007.6
20260506231907 23 76 1.6 4.8 0.00 0.03 0.03 62 1007.5
20260506231347 23 17 0.0 4.8 0.00 0.03 0.03 62 1007.3
20260506230919 23 337 1.6 4.8 0.00 0.03 0.03 61 1007.3
20260506230333 23 318 1.6 4.8 0.00 0.03 0.03 62 1007.3
20260506225833 23 77 1.6 9.7 0.00 0.03 0.03 62 1007.2
20260506225354 23 75 0.0 4.8 0.00 0.03 0.03 62 1007.3
20260506224850 23 348 1.6 6.4 0.00 0.03 0.03 62 1007.3
20260506224344 23 355 1.6 6.4 0.00 0.03 0.03 61 1007.3
20260506223840 23 83 1.6 6.4 0.00 0.03 0.03 61 1007.1
20260506223333 23 56 0.0 6.4 0.00 0.03 0.03 61 1007.2
20260506222845 23 60 1.6 6.4 0.00 0.03 0.03 61 1007.3
20260506222347 24 286 0.0 4.8 0.00 0.03 0.03 61 1007.3
20260506221845 24 95 0.0 4.8 0.00 0.03 0.03 61 1007.4
20260506221337 24 77 1.6 4.8 0.00 0.03 0.03 61 1007.4
20260506220837 24 69 0.0 3.2 0.00 0.03 0.03 61 1007.4
20260506220402 24 66 0.0 4.8 0.00 0.03 0.03 62 1007.6
20260506215830 24 256 1.6 4.8 0.00 0.03 0.03 61 1007.8
20260506215333 24 88 1.6 3.2 0.00 0.03 0.03 60 1007.6
20260506214851 24 84 0.0 3.2 0.00 0.03 0.03 61 1007.7
20260506214338 23 83 0.0 3.2 0.00 0.03 0.03 62 1007.7
20260506213834 24 82 0.0 3.2 0.00 0.03 0.03 61 1007.5
20260506213338 24 82 1.6 3.2 0.00 0.03 0.03 61 1007.3
20260506212853 24 87 0.0 4.8 0.00 0.03 0.03 60 1007.3
20260506212355 24 204 0.0 4.8 0.00 0.03 0.03 61 1007.4
20260506211850 24 227 1.6 6.4 0.00 0.03 0.03 60 1007.6
20260506211329 24 220 1.6 6.4 0.03 0.03 0.03 59 1007.6
20260506210828 24 331 1.6 6.4 0.03 0.03 0.03 59 1007.6
20260506210345 24 319 1.6 6.4 0.03 0.03 0.03 59 1007.5
20260506205848 24 23 1.6 4.8 0.03 0.03 0.03 59 1007.6
20260506205332 24 340 1.6 6.4 0.03 0.03 0.03 59 1007.4
20260506204838 24 329 1.6 6.4 0.03 0.03 0.03 59 1007.4
20260506204334 24 49 1.6 8.0 0.03 0.03 0.03 59 1007.1
20260506203838 24 345 3.2 8.0 0.03 0.03 0.03 59 1007.1
20260506203343 24 18 1.6 12.9 0.03 0.03 0.03 59 1007.0
20260506202832 24 184 3.2 12.9 0.03 0.03 0.03 58 1007.1
20260506202344 24 63 1.6 6.4 0.03 0.03 0.03 59 1007.0
20260506201849 24 211 3.2 8.0 0.03 0.03 0.03 58 1006.9
20260506201339 24 111 0.0 9.7 0.00 0.00 0.00 59 1006.9
20260506200838 24 129 3.2 9.7 0.00 0.00 0.00 58 1007.1
20260506200338 24 319 1.6 6.4 0.00 0.00 0.00 59 1007.4
20260506195915 24 73 0.0 6.4 0.00 0.00 0.00 60 1007.3
20260506195348 24 36 1.6 8.0 0.00 0.00 0.00 59 1007.4
20260506194832 23 319 1.6 8.0 0.00 0.00 0.00 59 1007.3
20260506194328 23 108 1.6 11.3 0.00 0.00 0.00 61 1007.4
20260506193916 23 51 3.2 11.3 0.00 0.00 0.00 59 1007.4
20260506193337 23 360 1.6 9.7 0.00 0.00 0.00 60 1007.6
20260506192852 23 329 0.0 9.7 0.00 0.00 0.00 61 1007.8
20260506192401 23 284 1.6 9.7 0.00 0.00 0.00 59 1008.0
20260506191842 23 105 1.6 9.7 0.00 0.00 0.00 60 1008.1
20260506191332 23 211 1.6 4.8 0.00 0.00 0.00 60 1008.2
20260506190854 23 90 0.0 3.2 0.00 0.00 0.00 60 1008.4
20260506190336 23 90 0.0 4.8 0.00 0.00 0.00 61 1008.6
20260506185836 23 90 1.6 4.8 0.00 0.00 0.00 61 1008.6
20260506185348 23 42 1.6 4.8 0.00 0.00 0.00 61 1008.6
20260506184859 23 286 1.6 4.8 0.00 0.00 0.00 61 1008.7
20260506184351 23 239 1.6 4.8 0.00 0.00 0.00 63 1008.8
20260506183829 23 86 0.0 4.8 0.00 0.00 0.00 62 1009.0
20260506183334 23 126 0.0 6.4 0.00 0.00 0.00 64 1009.0
20260506182833 23 125 1.6 6.4 0.00 0.00 0.00 61 1009.1
20260506182329 23 65 0.0 9.7 0.00 0.00 0.00 62 1009.2
20260506181906 23 67 1.6 9.7 0.00 0.00 0.00 59 1009.2
20260506181343 23 71 1.6 9.7 0.00 0.00 0.00 59 1009.1
20260506180846 23 49 1.6 8.0 0.00 0.00 0.00 60 1009.2
20260506180341 23 53 0.0 6.4 0.00 0.00 0.00 60 1009.2
20260506175847 23 159 3.2 8.0 0.00 0.00 0.00 59 1009.2
20260506175342 23 328 3.2 8.0 0.00 0.00 0.00 62 1009.2
20260506174843 23 91 3.2 9.7 0.00 0.00 0.00 61 1009.2
20260506174342 23 85 1.6 9.7 0.00 0.00 0.00 63 1009.2
20260506173829 23 129 1.6 9.7 0.00 0.00 0.00 62 1009.1
20260506173338 22 144 1.6 8.0 0.00 0.00 0.00 63 1009.2
20260506172833 22 22 1.6 8.0 0.00 0.00 0.00 66 1009.1
20260506172347 22 82 1.6 9.7 0.00 0.00 0.00 67 1009.4
20260506171907 22 230 3.2 9.7 0.00 0.00 0.00 64 1009.3
20260506171337 22 319 3.2 9.7 0.00 0.00 0.00 67 1009.2
20260506170832 21 255 1.6 8.0 0.00 0.00 0.00 67 1009.2
20260506170330 21 360 1.6 8.0 0.00 0.00 0.00 69 1009.4
20260506165834 21 318 1.6 8.0 0.00 0.00 0.00 71 1009.6
20260506165336 21 125 1.6 8.0 0.00 0.00 0.00 70 1009.9
20260506164836 20 271 1.6 6.4 0.00 0.00 0.00 71 1010.2
20260506164351 20 338 1.6 8.0 0.00 0.00 0.00 71 1010.0
20260506163833 20 130 1.6 8.0 0.00 0.00 0.00 72 1010.0
20260506163333 20 103 0.0 4.8 0.00 0.00 0.00 74 1010.0
20260506162831 20 104 1.6 4.8 0.00 0.00 0.00 74 1010.2
20260506162404 20 104 0.0 8.0 0.00 0.00 0.00 76 1010.4
20260506161902 20 101 0.0 8.0 0.00 0.00 0.00 76 1010.4
20260506161338 20 86 0.0 4.8 0.00 0.00 0.00 75 1010.4
20260506160828 20 86 0.0 8.0 0.00 0.00 0.00 74 1010.4
20260506160406 20 24 0.0 8.0 0.00 0.00 0.00 73 1010.5
20260506155835 20 56 0.0 4.8 0.00 0.00 0.00 72 1010.6
20260506155419 20 52 0.0 3.2 0.00 0.00 0.00 75 1010.6
20260506154841 20 52 0.0 4.8 0.00 0.00 0.00 77 1010.6
20260506154338 20 49 0.0 4.8 0.00 0.00 0.00 77 1010.8
20260506153842 19 71 0.0 3.2 0.00 0.00 0.00 77 1010.8
20260506153400 19 94 0.0 3.2 0.00 0.00 0.00 77 1010.9
20260506152834 20 96 0.0 3.2 0.00 0.00 0.00 75 1010.9
20260506152334 20 61 1.6 3.2 0.00 0.00 0.00 75 1010.9
20260506151834 20 63 0.0 3.2 0.00 0.00 0.00 75 1011.0